Starlink 11605

operational
NORAD ID: 63134 Int'l Des: 2025-043 Owner: SPXS Country: US Constellation: starlink
LEOCIRCULAR

Über Starlink 11605

Beschreibung wird geladen...

Live-Position

3D-Globus wird geladen...

Nächste Überflüge

Höhenverlauf

Altitude vs Time

uPlot chart will show altitude changes over time

Zweizeiliger Elementsatz

1 63134U 25043C 25352.38950617 .00212015 00000-0 16099-2 0 9995
2 63134 43.0029 20.9557 0001446 271.4966 88.5736 15.70900642 46567
Epoch: 18. Dez. 2025 • Age: 32 hours

Aktueller Status

Höhe 365.1 km
Geschwindigkeit 7.69 km/s
Subsatellitenpunkt -38.02°S, 28.78°W
Startdatum 3. März 2025
Alter 0.7 years
Typ internet

Technische Details

Klassifizierung Payload
Masse 960.00 kg
Trockenmasse 910.00 kg
Gesamtmasse 960.00 kg
Länge 0.30 m
Durchmesser 4.10 m
Spannweite 29.00 m
Form Box + pan
Hersteller SPXS
Bus-Typ Starlink V2MD
Phasenstatus In Orbit
Besitzer/Staat SPXS/US

Große Konstellationen

Loading constellations...